RLXB4W LEIB-LEPA

Flight info

Callsign RLXB4W
Flight time 0h 27m
Altitude 8000
Route LAMPA
Aircraft B738/M-SDE2E3FGHIRWXY/LB1

Departure

Time 2026-05-07 20:20
Airport Ibiza Airport (LEIB)

Arrival

Time 2026-05-07 20:48
Airport Palma de Mallorca Airport (LEPA)
Time Latitude Longitude Altitude Speed Heading
2026-05-07 20:01 38.87604 1.36997 27 ft 0 kts 333°
2026-05-07 20:10 38.87596 1.37003 14 ft 2 kts 328°
2026-05-07 20:10 38.87582 1.37014 5 ft 2 kts 324°
2026-05-07 20:10 38.87570 1.37027 34 ft 2 kts 313°
2026-05-07 20:11 38.87560 1.37044 27 ft 2 kts 293°
2026-05-07 20:11 38.87556 1.37065 27 ft 2 kts 264°
2026-05-07 20:11 38.87560 1.37083 28 ft 1 kts 243°
2026-05-07 20:11 38.87561 1.37087 27 ft 0 kts 241°
2026-05-07 20:14 38.87550 1.37061 27 ft 10 kts 242°
2026-05-07 20:14 38.87514 1.36972 27 ft 11 kts 242°
2026-05-07 20:14 38.87478 1.36883 27 ft 11 kts 243°
2026-05-07 20:14 38.87440 1.36799 27 ft 11 kts 225°
2026-05-07 20:15 38.87371 1.36811 27 ft 11 kts 156°
2026-05-07 20:15 38.87307 1.36851 27 ft 10 kts 169°
2026-05-07 20:15 38.87258 1.36793 27 ft 10 kts 241°
2026-05-07 20:15 38.87225 1.36716 27 ft 10 kts 242°
2026-05-07 20:16 38.87194 1.36640 27 ft 10 kts 242°
2026-05-07 20:16 38.87163 1.36566 27 ft 9 kts 242°
2026-05-07 20:16 38.87133 1.36494 27 ft 9 kts 242°
2026-05-07 20:16 38.87104 1.36424 27 ft 9 kts 242°
2026-05-07 20:17 38.87071 1.36345 26 ft 11 kts 242°
2026-05-07 20:17 38.87036 1.36260 28 ft 11 kts 242°
2026-05-07 20:17 38.87001 1.36177 28 ft 10 kts 242°
2026-05-07 20:17 38.86968 1.36095 29 ft 10 kts 242°
2026-05-07 20:18 38.86931 1.36005 30 ft 12 kts 242°
2026-05-07 20:18 38.86883 1.35890 27 ft 17 kts 242°
2026-05-07 20:18 38.86815 1.35826 28 ft 13 kts 166°
2026-05-07 20:18 38.86792 1.35839 26 ft 0 kts 153°
2026-05-07 20:19 38.86777 1.35849 30 ft 10 kts 152°
2026-05-07 20:19 38.86719 1.35932 27 ft 13 kts 86°
2026-05-07 20:19 38.86760 1.36049 27 ft 26 kts 62°
2026-05-07 20:20 38.86992 1.36606 27 ft 113 kts 62°
2026-05-07 20:20 38.87480 1.37746 212 ft 168 kts 60°
2026-05-07 20:20 38.88003 1.39142 1027 ft 187 kts 62°
2026-05-07 20:20 38.88486 1.40846 1354 ft 224 kts 74°
2026-05-07 20:21 38.88849 1.42914 1732 ft 252 kts 76°
2026-05-07 20:21 38.89205 1.45036 3002 ft 230 kts 75°
2026-05-07 20:21 38.89533 1.46939 4331 ft 207 kts 74°
2026-05-07 20:21 38.89854 1.48738 5159 ft 208 kts 74°
2026-05-07 20:22 38.90188 1.50574 5792 ft 214 kts 75°
2026-05-07 20:22 38.90529 1.52450 6468 ft 217 kts 75°
2026-05-07 20:22 38.90834 1.54353 7184 ft 218 kts 84°
2026-05-07 20:22 38.90715 1.56390 7479 ft 241 kts 96°
2026-05-07 20:23 38.90471 1.58580 7918 ft 252 kts 95°
2026-05-07 20:23 38.90242 1.60836 7958 ft 257 kts 95°
2026-05-07 20:23 38.90025 1.63066 7964 ft 254 kts 95°
2026-05-07 20:23 38.89808 1.65315 7958 ft 253 kts 96°
2026-05-07 20:24 38.89313 1.67488 7962 ft 256 kts 113°
2026-05-07 20:24 38.88543 1.69565 7968 ft 258 kts 113°
2026-05-07 20:24 38.87766 1.71654 7952 ft 262 kts 114°
2026-05-07 20:24 38.86952 1.73863 7953 ft 284 kts 114°
2026-05-07 20:25 38.86107 1.76162 7957 ft 284 kts 115°
2026-05-07 20:25 38.85261 1.78472 7967 ft 286 kts 114°
2026-05-07 20:25 38.84417 1.80792 7958 ft 287 kts 114°
2026-05-07 20:25 38.83573 1.83115 7956 ft 287 kts 114°
2026-05-07 20:26 38.82729 1.85440 7952 ft 287 kts 114°
2026-05-07 20:26 38.81885 1.87763 7951 ft 288 kts 114°
2026-05-07 20:26 38.81084 1.90078 7952 ft 287 kts 107°
2026-05-07 20:26 38.80944 1.92601 7952 ft 282 kts 78°
2026-05-07 20:27 38.81668 1.94894 7952 ft 277 kts 57°
2026-05-07 20:27 38.82809 1.96890 7958 ft 279 kts 52°
2026-05-07 20:27 38.84015 1.98851 7959 ft 281 kts 51°
2026-05-07 20:27 38.85233 2.00813 7958 ft 281 kts 51°
2026-05-07 20:28 38.86450 2.02783 7956 ft 282 kts 52°
2026-05-07 20:28 38.87664 2.04760 7953 ft 281 kts 52°
2026-05-07 20:28 38.88862 2.06724 7956 ft 277 kts 52°
2026-05-07 20:28 38.90040 2.08661 7953 ft 274 kts 52°
2026-05-07 20:29 38.91215 2.10600 7965 ft 276 kts 52°
2026-05-07 20:29 38.92398 2.12556 7960 ft 278 kts 52°
2026-05-07 20:29 38.93568 2.14495 7953 ft 279 kts 52°
2026-05-07 20:29 38.94758 2.16468 7921 ft 281 kts 52°
2026-05-07 20:30 38.95963 2.18467 7651 ft 283 kts 53°
2026-05-07 20:30 38.97160 2.20456 7397 ft 279 kts 52°
2026-05-07 20:30 38.98344 2.22422 7149 ft 275 kts 52°
2026-05-07 20:30 38.99508 2.24359 6897 ft 273 kts 52°
2026-05-07 20:31 39.00663 2.26280 6647 ft 269 kts 52°
2026-05-07 20:31 39.01802 2.28176 6413 ft 267 kts 52°
2026-05-07 20:31 39.02931 2.30056 6156 ft 264 kts 53°
2026-05-07 20:31 39.04042 2.31908 6034 ft 258 kts 53°
2026-05-07 20:32 39.05124 2.33710 5996 ft 250 kts 53°
2026-05-07 20:32 39.06165 2.35446 5995 ft 246 kts 53°
2026-05-07 20:32 39.07220 2.37208 6004 ft 252 kts 53°
2026-05-07 20:32 39.08302 2.39014 6008 ft 256 kts 53°
2026-05-07 20:33 39.09386 2.40826 6003 ft 255 kts 53°
2026-05-07 20:33 39.10468 2.42636 5989 ft 255 kts 53°
2026-05-07 20:33 39.11552 2.44448 5994 ft 255 kts 53°
2026-05-07 20:33 39.12636 2.46262 5997 ft 255 kts 53°
2026-05-07 20:34 39.13720 2.48077 5995 ft 256 kts 53°
2026-05-07 20:34 39.14805 2.49895 6000 ft 256 kts 53°
2026-05-07 20:34 39.15875 2.51688 5991 ft 256 kts 53°
2026-05-07 20:34 39.16959 2.53507 5999 ft 256 kts 53°
2026-05-07 20:35 39.18040 2.55320 5996 ft 255 kts 53°
2026-05-07 20:35 39.19121 2.57136 6003 ft 255 kts 53°
2026-05-07 20:35 39.20200 2.58950 6000 ft 255 kts 53°
2026-05-07 20:35 39.21274 2.60755 5992 ft 252 kts 53°
2026-05-07 20:36 39.22338 2.62546 5991 ft 252 kts 53°
2026-05-07 20:36 39.23407 2.64358 5987 ft 256 kts 53°
2026-05-07 20:36 39.24480 2.66157 6003 ft 254 kts 53°
2026-05-07 20:36 39.25542 2.67943 5992 ft 248 kts 55°
2026-05-07 20:37 39.26587 2.69705 5997 ft 246 kts 54°
2026-05-07 20:37 39.27630 2.71457 6002 ft 246 kts 54°
2026-05-07 20:37 39.28672 2.73218 6019 ft 247 kts 54°
2026-05-07 20:37 39.29723 2.74990 5995 ft 249 kts 54°
2026-05-07 20:38 39.30816 2.76724 5982 ft 249 kts 44°
2026-05-07 20:38 39.32381 2.77727 5680 ft 259 kts
2026-05-07 20:38 39.34116 2.77365 5443 ft 259 kts 332°
2026-05-07 20:38 39.35377 2.75774 5189 ft 256 kts 296°
2026-05-07 20:39 39.35754 2.73570 4971 ft 251 kts 272°
2026-05-07 20:39 39.35832 2.71319 4720 ft 250 kts 272°
2026-05-07 20:39 39.35903 2.69060 4466 ft 251 kts 272°
2026-05-07 20:39 39.35985 2.66804 4268 ft 254 kts 273°
2026-05-07 20:40 39.36035 2.64507 3955 ft 255 kts 272°
2026-05-07 20:40 39.36055 2.62211 3697 ft 256 kts 272°
2026-05-07 20:40 39.36065 2.59916 3410 ft 255 kts 272°
2026-05-07 20:40 39.36102 2.57656 3165 ft 255 kts 274°
2026-05-07 20:41 39.36137 2.55355 2875 ft 257 kts 271°
2026-05-07 20:41 39.36168 2.53048 2603 ft 257 kts 272°
2026-05-07 20:41 39.36177 2.50724 2341 ft 261 kts 270°
2026-05-07 20:41 39.36448 2.48457 2129 ft 250 kts 302°
2026-05-07 20:42 39.37596 2.46904 2105 ft 234 kts 332°
2026-05-07 20:42 39.39051 2.46287 2065 ft 215 kts
2026-05-07 20:42 39.40397 2.46791 2100 ft 199 kts 40°
2026-05-07 20:42 39.41393 2.48056 2112 ft 203 kts 48°
2026-05-07 20:43 39.42419 2.49359 2137 ft 210 kts 50°
2026-05-07 20:43 39.43301 2.50881 2094 ft 211 kts 49°
2026-05-07 20:43 39.44316 2.52222 2099 ft 207 kts 46°
2026-05-07 20:43 39.45319 2.53544 2083 ft 204 kts 46°
2026-05-07 20:44 39.46300 2.54852 2098 ft 202 kts 47°
2026-05-07 20:44 39.47275 2.56151 2109 ft 200 kts 47°
2026-05-07 20:44 39.48258 2.57472 2101 ft 204 kts 50°
2026-05-07 20:44 39.49008 2.59046 2099 ft 207 kts 64°
2026-05-07 20:45 39.49743 2.60660 1891 ft 207 kts 56°
2026-05-07 20:45 39.50505 2.62167 1624 ft 193 kts 57°
2026-05-07 20:45 39.51181 2.63594 1370 ft 180 kts 59°
2026-05-07 20:45 39.51804 2.64913 1146 ft 166 kts 58°
2026-05-07 20:46 39.52376 2.66120 930 ft 149 kts 58°
2026-05-07 20:46 39.52887 2.67202 699 ft 133 kts 57°
2026-05-07 20:46 39.53358 2.68193 589 ft 133 kts 58°
2026-05-07 20:46 39.53861 2.69256 402 ft 139 kts 57°
2026-05-07 20:47 39.54375 2.70329 248 ft 141 kts 59°
2026-05-07 20:47 39.54871 2.71443 87 ft 145 kts 57°
2026-05-07 20:47 39.55401 2.72527 27 ft 132 kts 56°
2026-05-07 20:47 39.55762 2.73280 23 ft 76 kts 58°
2026-05-07 20:48 39.55959 2.73692 22 ft 34 kts 58°
2026-05-07 20:48 39.55984 2.73817 22 ft 12 kts 128°
2026-05-07 20:48 39.55920 2.73872 23 ft 10 kts 149°
2026-05-07 20:48 39.55857 2.73905 23 ft 10 kts 191°
2026-05-07 20:49 39.55815 2.73837 26 ft 10 kts 239°
2026-05-07 20:49 39.55781 2.73763 24 ft 9 kts 239°
2026-05-07 20:49 39.55746 2.73691 27 ft 9 kts 234°
2026-05-07 20:49 39.55712 2.73622 25 ft 9 kts 238°
2026-05-07 20:50 39.55705 2.73608 25 ft 0 kts 238°
2026-05-07 20:50 39.55705 2.73607 25 ft 1 kts 238°
2026-05-07 20:50 39.55665 2.73524 29 ft 17 kts 231°
2026-05-07 20:51 39.55563 2.73549 28 ft 16 kts 148°
2026-05-07 20:51 39.55490 2.73548 30 ft 9 kts 239°
2026-05-07 20:51 39.55456 2.73474 30 ft 10 kts 239°
2026-05-07 20:51 39.55399 2.73462 30 ft 10 kts 152°
2026-05-07 20:52 39.55343 2.73506 34 ft 9 kts 148°
2026-05-07 20:52 39.55288 2.73550 35 ft 9 kts 148°
2026-05-07 20:52 39.55236 2.73593 35 ft 9 kts 147°
2026-05-07 20:52 39.55182 2.73603 35 ft 9 kts 218°
2026-05-07 20:53 39.55149 2.73540 35 ft 8 kts 238°
2026-05-07 20:53 39.55118 2.73477 35 ft 8 kts 238°
2026-05-07 20:53 39.55081 2.73427 35 ft 8 kts 194°
2026-05-07 20:53 39.55027 2.73434 34 ft 8 kts 163°
2026-05-07 20:54 39.55004 2.73443 35 ft 2 kts 163°
2026-05-07 20:54 39.54999 2.73445 35 ft 0 kts 163°